Lid_Strength_Index
8 10 12 9 8 10 11 11 12 11 10 10 11 10 9 8 8 8 7 7 6 6 4 4 3 3 2 2 2 1 1 0 0 1 1 1 1 0 0 -0 -1 -1 -1 -1
9 12 10 10 9 10 10 11 11 10 9 10 11 12 10 9 9 8 8 8 8 7 7 5 5 4 4 3 2 2 2 1 0 0 0 0 0 0 0 -0 -0 -1 -1 -1
12 11 10 10 10 10 10 11 11 11 9 9 11 13 12 10 9 8 8 7 7 7 7 6 5 4 4 3 3 2 2 1 1 -0 0 0 0 0 1 0 0 -0 -1 -1
10 9 10 11 12 10 12 8 9 10 12 14 11 17 12 11 10 9 8 8 7 6 6 6 6 5 5 4 2 3 3 3 2 1 1 1 2 2 1 1 0 0 -0 -0
11 10 10 11 12 10 12 9 10 11 12 13 13 16 14 12 12 10 8 7 7 7 6 6 6 5 5 5 4 3 3 3 2 1 1 1 1 1 1 0 1 0 -0 -0
10 7 8 9 8 9 9 10 10 11 12 16 14 14 15 14 12 11 9 8 7 7 6 6 6 6 5 4 3 3 3 2 1 1 1 1 1 1 1 1 1 1 0 0
10 10 8 7 10 8 9 12 17 18 18 19 13 15 14 11 10 10 9 8 7 6 6 6 6 5 5 5 5 5 5 5 3 2 1 1 1 1 1 1 1 1 1 1
14 15 10 8 9 11 11 11 15 19 18 16 14 17 14 9 8 7 8 8 7 6 6 6 6 5 6 6 5 5 6 7 6 5 5 5 5 4 4 4 4 4 4 3
13 13 8 8 7 8 11 13 9 13 15 16 15 12 10 9 8 8 8 8 7 6 6 5 6 6 6 7 7 7 7 7 7 7 6 6 6 6 6 5 5 5 5 5
10 14 10 9 7 8 9 8 14 13 19 18 15 15 13 11 11 9 8 8 7 7 6 5 6 7 7 7 7 7 7 8 7 7 7 7 7 7 7 6 7 7 7 6
9 11 13 10 11 12 11 12 11 11 13 16 17 15 11 10 9 9 8 8 7 7 7 6 6 7 8 8 8 8 8 8 8 8 8 8 8 8 8 8 8 8 8 8
9 11 15 13 10 9 9 11 11 15 16 14 14 15 9 9 9 9 9 8 7 7 7 6 6 7 8 8 9 9 9 9 9 9 9 9 9 9 9 9 8 8 8 8
8 13 17 15 12 10 11 10 10 10 12 15 16 15 9 8 9 8 8 8 7 6 6 6 6 7 8 8 9 9 9 10 10 9 9 9 9 9 9 9 9 8 8 8
7 11 13 16 13 11 13 11 10 11 15 15 14 14 11 10 9 8 7 7 6 6 6 6 5 6 7 7 8 9 9 9 10 10 10 10 10 10 9 9 9 9 8 8
8 15 12 11 10 10 11 11 11 13 12 14 13 12 11 9 9 8 7 7 7 7 6 6 6 5 6 7 7 8 9 9 10 10 10 10 10 9 9 9 9 8 8 8
8 14 12 14 11 11 13 11 10 11 11 11 11 11 7 7 6 7 7 6 7 7 6 5 4 4 4 5 6 7 8 9 9 9 9 10 10 9 9 9 9 9 9 8
11 13 14 16 11 12 16 12 11 10 9 10 12 9 7 7 7 6 6 6 6 5 5 4 4 3 4 4 5 7 8 8 9 9 9 10 10 10 10 10 10 10 9 9
12 13 13 15 14 19 11 7 8 9 9 8 8 8 7 6 6 5 4 5 5 4 4 4 3 3 2 3 5 6 8 9 9 9 10 11 11 11 11 11 11 11 10 10
8 11 14 16 17 13 11 9 9 10 10 7 7 7 6 6 5 6 4 4 4 3 3 3 2 2 2 4 5 7 9 9 9 10 11 11 12 12 12 12 12 11 11 11
9 9 13 14 18 19 11 8 6 7 13 7 6 7 6 6 9 7 4 3 3 3 3 3 4 5 5 6 7 8 9 9 10 11 12 13 13 13 13 12 13 12 12 12
13 13 15 15 16 14 8 7 6 14 12 6 6 6 6 7 6 4 3 3 4 4 5 6 7 7 7 8 8 9 9 10 11 13 14 14 14 14 13 13 13 13 13 12
14 15 15 14 16 18 6 7 10 8 5 5 5 5 5 5 5 5 4 5 5 6 8 8 9 10 10 9 9 10 11 14 14 15 15 16 15 15 14 15 14 14 12 12
13 10 12 12 12 7 6 6 5 5 5 5 5 5 5 5 5 5 5 5 6 7 9 10 11 13 13 12 11 13 15 15 16 17 17 17 16 16 16 15 15 14 13 13
9 8 10 10 8 7 6 5 5 5 5 4 4 4 5 6 6 6 6 7 9 10 11 12 14 15 16 16 16 16 17 18 17 17 17 17 17 17 16 16 15 15 15 15
8 8 10 10 8 7 6 6 5 5 5 5 6 6 6 6 7 7 7 9 10 11 13 14 15 16 18 18 19 20 20 19 18 18 18 18 17 18 18 17 16 17 16 16
8 9 10 10 7 7 7 5 5 6 6 5 6 6 7 7 7 7 9 10 11 13 14 15 16 18 19 20 22 22 22 20 18 19 19 19 19 19 18 18 17 16 17 16